{"data":{"norad_id":58680,"intl_designator":"2023-211P","name":"STARLINK-31112","alt_names":[],"object_type":"PAYLOAD","status":"ACTIVE","operator":null,"country":"US","launch_date":"2023-12-29","launch_site_code":"AFETR","launch_vehicle":null,"mission":null,"orbit_class":"UNKNOWN","rcs_meters":null,"size_class":null,"mass_kg":null,"dimensions":null,"purposes":["comms"],"wikipedia_slug":null,"has_3d_model":false,"image_url":null,"decayed_at":null,"tle_current":{"epoch":"2026-05-24T23:37:33.729024Z","epoch_age_seconds":86507,"freshness":"FRESH","line1":"1 58680U 23211P   26144.98441816  .00005891  00000+0  22334-3 0  9993","line2":"2 58680  42.9998  14.3410 0001313 270.5992  89.4709 15.27592247135319","mean_motion":15.27592247,"eccentricity":0.0001313,"inclination_deg":42.9998,"raan_deg":14.341,"arg_perigee_deg":270.5992,"mean_anomaly_deg":89.4709,"bstar":0.00022334,"rev_number":13531,"period_min":94.265992959049,"perigee_km":482.1115554414,"apogee_km":483.91329328024,"semimajor_km":6861.1494243608,"source":"CELESTRAK","updated_at":"2026-05-25T13:38:18.712643Z"}}}